CZ-3B R/B (55913 NORAD) Tracking and Keplerian Element Data

This shows tracking and keplerian element data for the satellite.

Feedback or suggestion? Click here.




ElementValue
Catalog55913
NameCZ-3B R/B
Epoch Orbit10
Epoch Day80.34465328
Epoch Year2023
RAAN298.7179
Inclination28.4891
Eccentricity0.7228687
Argument of Perigee181.2232
Mean Anonmoly176.4569
Mean Motion2.39033481
Decay Rate3.9E-05
L11 55913U 23036B 23080.34465328 .00003900 -60593-6 10000-3 0 9991
L22 55913 28.4891 298.7179 7228687 181.2232 176.4569 2.39033481 101



Live tracking and technical data element details for CZ-3B R/B (NORAD 55913). CZ-3B R/B can be tracked NOW for your location showing map with azimuth and elevation plus other details from your city location.







IsCatalogInMostPopularTable: catalog: 55913, numindb: 6
Update: records affected: 1



GetName: 55913 CZ-3B R/B

Hit Count: updated at: Tue, 06 Jun 2023 02:36:59 GMT